Location: Buchberg
(46.9333°N, 15.8500°E)
Time: 19:53:41
(UTC+00:00)

CZ-2C R/B - Pass Details

Date: 14 July 2020
Orbit: 503 x 566 km, 97.7° (Epoch: 05 August)

Event Time Altitude Azimuth Distance (km) Brightness Sun altitude
Rises 02:10:35 0° 16° (NNE) 2,777 7.7 -9.4°
Reaches altitude 10° 02:12:46 10° 21° (NNE) 1,876 6.8 -9.2°
Maximum altitude 02:16:47 57° 100° (E) 673 3.5 -8.7°
Drops below altitude 10° 02:20:44 10° 180° (S) 1,850 5.1 -8.2°
Enters shadow 02:22:17 - 183° (S) 2,484 5.7 -8.0°
